Fort Campbell, KY

11:57 PM CST on February 20, 2018 (GMT -0600)
Campbell Army Air Field

Weather History for KHOP - January, 2013

Change the Weather History Date:

Friday, January 11, 2013

  Actual Average Record
Temperature  
Mean Temperature 62 °F -  
Max Temperature 68 °F 43 °F 68 °F (2013)
Min Temperature 56 °F 26 °F 1 °F (1997)
Degree Days  
Heating Degree Days 3    
Growing Degree Days 12 (Base 50)    
Moisture  
Dew Point 58 °F    
Average Humidity 92    
Maximum Humidity 100    
Minimum Humidity 52    
Precipitation  
Precipitation 1.18 in - - ()
Sea Level Pressure  
Sea Level Pressure 29.95 in    
Wind  
Wind Speed 16 mph (SSW)    
Max Wind Speed 26 mph    
Max Gust Speed 33 mph    
Visibility 8 miles    
Events Rain    
Averages and records for this station are not official NWS values.
T = Trace of Precipitation, MM = Missing Value Source: NWS Daily Summary

Daily Weather History Graph

Daily Weather History Graph

Search for Another Location

Airport or City:

Trip Planner

Search our weather history database for the weather conditions in past years. The results will help you decide how hot, cold, wet, or windy it might be!

Date:

Astronomy

Jan. 11, 2013 Rise Set
Actual Time 7:02 AM CST 4:54 PM CST
Civil Twilight 6:33 AM CST 5:22 PM CST
Nautical Twilight 6:02 AM CST 5:54 PM CST
Astronomical Twilight 5:30 AM CST 6:25 PM CST
Moon 6:36 AM CST (1/11) 5:09 PM CST (1/11)
Length of Visible Light 10h 48m
Length of Day
9h 51m
Waning Crescent, 0% of the Moon is Illuminated
Jan 11
Waning Crescent
Jan 11
New
Jan 18
First Quarter
Jan 26
Full
Feb 3
Last Quarter

Hourly Weather History & Observations

Time (CST) Temp. Dew Point Humidity Pressure Visibility Wind Dir Wind Speed Gust Speed Precip Events Conditions
12:30 AM 66.2 °F 62.6 °F 88% 29.90 in 10.0 mi SSE 19.6 mph 26.5 mph N/A   Light Drizzle
12:40 AM 66.2 °F 62.6 °F 88% 29.89 in 10.0 mi SSE 18.4 mph 26.5 mph N/A   Overcast
12:55 AM 65.1 °F 63.0 °F 93% 29.89 in 10.0 mi South 15.0 mph - 0.00 in   Overcast
1:45 AM 66.2 °F 64.4 °F 94% 29.89 in 10.0 mi South 17.3 mph 27.6 mph N/A Rain Light Rain
1:55 AM 65.1 °F 64.6 °F 98% 29.89 in 10.0 mi South 17.3 mph 25.3 mph 0.02 in   Light Drizzle
2:00 AM 64.4 °F 64.4 °F 100% 29.90 in 10.0 mi South 16.1 mph 23.0 mph N/A Rain Light Rain
2:09 AM 64.4 °F 64.4 °F 100% 29.91 in 3.0 mi SSW 16.1 mph 23.0 mph N/A Rain Heavy Rain
2:11 AM 64.4 °F 64.4 °F 100% 29.91 in 2.5 mi SSW 17.3 mph 23.0 mph N/A Rain Heavy Rain
2:13 AM 64.4 °F 64.4 °F 100% 29.91 in 1.8 mi SW 19.6 mph 32.2 mph N/A Rain Heavy Rain
2:16 AM 64.4 °F 64.4 °F 100% 29.91 in 1.0 mi SSW 20.7 mph 33.4 mph N/A Rain Heavy Rain
2:19 AM 64.4 °F 64.4 °F 100% 29.91 in 0.8 mi SSW 26.5 mph 33.4 mph N/A Rain Heavy Rain
2:24 AM 64.4 °F 64.4 °F 100% 29.91 in 1.0 mi SSW 20.7 mph 32.2 mph N/A Rain Heavy Rain
2:27 AM 64.4 °F 64.4 °F 100% 29.91 in 1.0 mi SW 20.7 mph 32.2 mph N/A Rain Heavy Rain
2:30 AM 64.4 °F 64.4 °F 100% 29.92 in 1.5 mi SSW 17.3 mph - N/A Rain Rain
2:33 AM 62.6 °F 62.6 °F 100% 29.92 in 2.0 mi SSW 19.6 mph - N/A Rain Rain
2:44 AM 62.6 °F 62.6 °F 100% 29.92 in 3.0 mi SW 17.3 mph - N/A Rain Rain
2:55 AM 63.5 °F 63.5 °F 100% 29.93 in 4.0 mi WSW 20.7 mph 29.9 mph 0.84 in Rain Light Rain
2:59 AM 62.6 °F 62.6 °F 100% 29.94 in 2.5 mi West 18.4 mph 29.9 mph N/A Rain Heavy Rain
3:01 AM 60.8 °F 60.8 °F 100% 29.93 in 1.8 mi West 16.1 mph 29.9 mph N/A Rain Heavy Rain
3:03 AM 60.8 °F 60.8 °F 100% 29.94 in 1.2 mi West 17.3 mph 29.9 mph N/A Rain Heavy Rain
3:14 AM 59.0 °F 59.0 °F 100% 29.94 in 1.5 mi West 17.3 mph - N/A Rain Heavy Rain
3:20 AM 57.2 °F 57.2 °F 100% 29.94 in 2.0 mi West 19.6 mph - N/A Rain Light Rain
3:22 AM 57.2 °F 57.2 °F 100% 29.94 in 3.0 mi WSW 18.4 mph - N/A Rain Light Rain
3:28 AM 57.2 °F 57.2 °F 100% 29.94 in 5.0 mi WSW 18.4 mph 24.2 mph N/A Rain Light Rain
3:34 AM 57.2 °F 57.2 °F 100% 29.94 in 10.0 mi WSW 15.0 mph 24.2 mph N/A   Light Drizzle
3:55 AM 57.9 °F 57.9 °F 100% 29.94 in 10.0 mi WSW 16.1 mph - 0.30 in   Light Drizzle
4:00 AM 57.2 °F 57.2 °F 100% 29.94 in 10.0 mi WSW 16.1 mph - N/A   Overcast
4:19 AM 57.2 °F 57.2 °F 100% 29.95 in 10.0 mi WSW 16.1 mph - N/A   Overcast
4:20 AM 57.2 °F 57.2 °F 100% 29.95 in 10.0 mi WSW 15.0 mph - N/A Rain Light Rain
4:25 AM 57.2 °F 57.2 °F 100% 29.96 in 7.0 mi SW 15.0 mph - N/A Rain Light Rain
4:33 AM 57.2 °F 57.2 °F 100% 29.96 in 10.0 mi SW 15.0 mph - N/A   Overcast
4:55 AM 57.2 °F 57.2 °F 100% 29.97 in 10.0 mi SW 16.1 mph - 0.02 in   Overcast
5:08 AM 57.2 °F 57.2 °F 100% 29.96 in 10.0 mi WSW 16.1 mph - N/A   Light Drizzle
5:17 AM 57.2 °F 57.2 °F 100% 29.96 in 10.0 mi SW 13.8 mph - N/A   Overcast
5:32 AM 57.2 °F 57.2 °F 100% 29.97 in 10.0 mi SW 11.5 mph - N/A   Light Drizzle
5:41 AM 57.2 °F 57.2 °F 100% 29.97 in 10.0 mi SW 13.8 mph - N/A   Overcast
5:53 AM 57.2 °F 57.2 °F 100% 29.99 in 10.0 mi SW 13.8 mph - N/A   Light Drizzle
5:55 AM 56.8 °F 56.8 °F 100% 29.99 in 10.0 mi SW 13.8 mph - 0.00 in   Light Drizzle
6:03 AM 57.2 °F 57.2 °F 100% 29.99 in 10.0 mi SW 11.5 mph - N/A   Overcast
6:55 AM 57.0 °F 57.0 °F 100% 30.00 in 10.0 mi SW 9.2 mph - 0.00 in   Overcast
7:55 AM 57.7 °F 57.7 °F 100% 30.02 in 10.0 mi South 6.9 mph - N/A   Partly Cloudy
8:55 AM 60.4 °F 58.3 °F 93% 30.03 in 10.0 mi SSW 8.1 mph - N/A   Clear
9:55 AM 62.1 °F 54.0 °F 75% 30.03 in 10.0 mi SSW 18.4 mph - N/A   Clear
10:55 AM 63.7 °F 52.3 °F 67% 30.02 in 10.0 mi SSW 17.3 mph 24.2 mph N/A   Clear
11:55 AM 66.0 °F 50.9 °F 58% 29.98 in 10.0 mi SSW 17.3 mph - N/A   Clear
12:55 PM 66.7 °F 49.8 °F 54% 29.96 in 10.0 mi SW 18.4 mph 21.9 mph N/A   Clear
1:55 PM 68.5 °F 50.4 °F 52% 29.96 in 10.0 mi SSW 16.1 mph - N/A   Clear
2:55 PM 67.8 °F 50.4 °F 54% 29.96 in 10.0 mi SW 13.8 mph - N/A   Clear
3:55 PM 66.0 °F 49.6 °F 55% 29.96 in 10.0 mi SSW 16.1 mph 20.7 mph N/A   Clear
4:55 PM 63.7 °F 50.5 °F 62% 29.96 in 10.0 mi SSW 4.6 mph - N/A   Clear
5:55 PM 62.6 °F 50.9 °F 66% 29.96 in 10.0 mi SSE 5.8 mph - N/A   Clear
6:55 PM 61.5 °F 50.4 °F 67% 29.96 in 10.0 mi SSE 5.8 mph - N/A   Clear
7:55 PM 60.3 °F 52.2 °F 75% 29.97 in 10.0 mi SSE 6.9 mph - N/A   Clear
8:55 PM 60.4 °F 54.9 °F 82% 29.97 in 10.0 mi South 8.1 mph - N/A   Clear
9:55 PM 59.0 °F 56.3 °F 91% 29.97 in 10.0 mi SSE 4.6 mph - N/A   Clear
10:41 PM 59.0 °F 59.0 °F 100% 29.97 in 10.0 mi South 5.8 mph - N/A   Mostly Cloudy
10:55 PM 59.9 °F 59.5 °F 99% 29.97 in 10.0 mi South 4.6 mph - N/A   Overcast
11:55 PM 61.5 °F 61.5 °F 100% 29.96 in 10.0 mi South 11.5 mph - N/A   Overcast